Weather History for Olathe, KS

Change the Weather History Date:

Wednesday, February 6, 2013

  Actual Average Record
Temperature  
Mean Temperature 46 °F 32 °F  
Max Temperature 60 °F 42 °F 67 °F (2009)
Min Temperature 32 °F 23 °F -12 °F (1982)
Degree Days  
Heating Degree Days 19 33  
Month to date heating degree days 177 199  
Since 1 July heating degree days 2940 3247  
Cooling Degree Days 0 0  
Month to date cooling degree days 0 0  
Year to date cooling degree days 1 0  
Moisture  
Dew Point 34 °F    
Average Humidity 63    
Maximum Humidity 82    
Minimum Humidity 43    
Precipitation  
Precipitation 0.00 in 0.06 in 0.77 in (2005)
Month to date precipitation 0.00 0.31  
Year to date precipitation 1.79 1.43  
Sea Level Pressure  
Sea Level Pressure 30.00 in    
Wind  
Wind Speed 12 mph (SSE)    
Max Wind Speed 21 mph    
Max Gust Speed 25 mph    
Visibility 10 miles    
Events      
T = Trace of Precipitation, MM = Missing Value Source: NWS Daily Summary

Daily Weather History Graph

Daily Weather History Graph

Search for Another Location

Airport:

Trip Planner

Search our weather history database for the weather conditions in past years. The results will help you decide how hot, cold, wet, or windy it might be!

Date:

Astronomy

Feb. 06, 2013 Rise Set
Actual Time 7:19 AM CST 5:46 PM CST
Civil Twilight 6:52 AM CST 6:14 PM CST
Nautical Twilight 6:20 AM CST 6:46 PM CST
Astronomical Twilight 5:49 AM CST 7:17 PM CST
Moon 4:03 AM CST (2/6) 2:06 PM CST (2/6)
Length of Visible Light 11h 22m
Length of Day
10h 26m
Waning Crescent, 17% of the Moon is Illuminated
Feb 6
Waning Crescent
Feb 10
New
Feb 17
First Quarter
Feb 25
Full
Mar 4
Last Quarter

Hourly Weather History & Observations

Time (CST) Temp. Windchill Dew Point Humidity Pressure Visibility Wind Dir Wind Speed Gust Speed Precip Events Conditions
1:53 AM 37.0 °F 32.4 °F 26.1 °F 65% 30.09 in 10.0 mi ESE 5.8 mph - N/A   Clear
2:53 AM 35.1 °F 29.3 °F 26.1 °F 70% 30.09 in 10.0 mi ESE 6.9 mph - N/A   Clear
3:53 AM 34.0 °F 28.0 °F 27.0 °F 75% 30.10 in 10.0 mi SE 6.9 mph - N/A   Clear
4:53 AM 34.0 °F 28.0 °F 27.0 °F 75% 30.09 in 10.0 mi SSE 6.9 mph - N/A   Clear
5:53 AM 34.0 °F 26.6 °F 28.0 °F 79% 30.09 in 10.0 mi SE 9.2 mph - N/A   Clear
6:53 AM 35.1 °F 28.6 °F 28.0 °F 76% 30.10 in 10.0 mi SSE 8.1 mph - N/A   Clear
7:53 AM 36.0 °F 28.5 °F 28.0 °F 73% 30.10 in 10.0 mi SSE 10.4 mph - N/A   Clear
8:53 AM 39.0 °F 32.3 °F 28.9 °F 67% 30.09 in 10.0 mi SSE 10.4 mph - N/A   Clear
9:53 AM 45.0 °F 38.2 °F 30.9 °F 58% 30.09 in 10.0 mi SSE 15.0 mph 23.0 mph N/A   Clear
10:53 AM 50.0 °F - 30.9 °F 48% 30.07 in 10.0 mi SSE 16.1 mph 25.3 mph N/A   Clear
11:53 AM 54.0 °F - 33.1 °F 45% 30.03 in 10.0 mi SSE 18.4 mph - N/A   Clear
12:53 PM 57.0 °F - 36.0 °F 45% 30.00 in 10.0 mi South 13.8 mph - N/A   Clear
1:53 PM 57.9 °F - 37.0 °F 46% 29.95 in 10.0 mi SSE 15.0 mph - N/A   Partly Cloudy
2:53 PM 57.9 °F - 37.9 °F 47% 29.94 in 10.0 mi SSE 15.0 mph - N/A   Overcast
3:53 PM 59.0 °F - 39.9 °F 49% 29.91 in 10.0 mi SSE 13.8 mph - N/A   Overcast
4:53 PM 59.0 °F - 39.9 °F 49% 29.89 in 10.0 mi SSE 13.8 mph - N/A   Clear
5:53 PM 57.0 °F - 39.9 °F 53% 29.89 in 10.0 mi SSE 11.5 mph - N/A   Mostly Cloudy
6:53 PM 54.0 °F - 39.0 °F 57% 29.89 in 10.0 mi SSE 13.8 mph - N/A   Mostly Cloudy
7:53 PM 53.1 °F - 37.9 °F 57% 29.90 in 10.0 mi SSE 15.0 mph - N/A   Overcast
8:53 PM 52.0 °F - 37.9 °F 59% 29.91 in 10.0 mi South 13.8 mph - N/A   Overcast
9:53 PM 50.0 °F - 37.9 °F 63% 29.91 in 10.0 mi South 15.0 mph - N/A   Overcast
10:53 PM 50.0 °F - 37.9 °F 63% 29.92 in 10.0 mi South 12.7 mph - N/A   Overcast
11:53 PM 50.0 °F - 39.0 °F 66% 29.91 in 10.0 mi SSE 10.4 mph - N/A   Overcast